Lake Martin Weather Center

Moon Phase Calendar



Lake Martin Water Level
Online Cameras

 


      

Current Conditions in Dadeville
4/23/2024 3:28:05 AM

43°F
Feels Like 41
Clear
Humidity
100%
Pressure
30.15"
Wind
3.4 mph (N)
Dew Point
43°F
UV Index
0/10 (Low)
Visibility
6 mi

Hourly Forecast

Date & Time Tue, Apr 23
3:00 AM
Tue, Apr 23
4:00 AM
Tue, Apr 23
5:00 AM
Tue, Apr 23
6:00 AM
Tue, Apr 23
7:00 AM
Tue, Apr 23
8:00 AM
Tue, Apr 23
9:00 AM
Tue, Apr 23
10:00 AM
Tue, Apr 23
11:00 AM
Tue, Apr 23
12:00 PM
Tue, Apr 23
1:00 PM
Tue, Apr 23
2:00 PM
Tue, Apr 23
3:00 PM
Tue, Apr 23
4:00 PM
Tue, Apr 23
5:00 PM
Tue, Apr 23
6:00 PM
Tue, Apr 23
7:00 PM
Tue, Apr 23
8:00 PM
Tue, Apr 23
9:00 PM
Tue, Apr 23
10:00 PM
Tue, Apr 23
11:00 PM
Wed, Apr 24
12:00 AM
Wed, Apr 24
1:00 AM
Wed, Apr 24
2:00 AM
Wed, Apr 24
3:00 AM
Wed, Apr 24
4:00 AM
Wed, Apr 24
5:00 AM
Wed, Apr 24
6:00 AM
Wed, Apr 24
7:00 AM
Wed, Apr 24
8:00 AM
Wed, Apr 24
9:00 AM
Wed, Apr 24
10:00 AM
Wed, Apr 24
11:00 AM
Wed, Apr 24
12:00 PM
Wed, Apr 24
1:00 PM
Wed, Apr 24
2:00 PM
Wed, Apr 24
3:00 PM
Wed, Apr 24
4:00 PM
Wed, Apr 24
5:00 PM
Wed, Apr 24
6:00 PM
Wed, Apr 24
7:00 PM
Wed, Apr 24
8:00 PM
Wed, Apr 24
9:00 PM
Wed, Apr 24
10:00 PM
Wed, Apr 24
11:00 PM
Thu, Apr 25
12:00 AM
Thu, Apr 25
1:00 AM
Thu, Apr 25
2:00 AM
Condition
Clear

Clear

Clear

Clear

Clear

Clear

Clear

Clear

Clear

Clear

Clear

Clear

Clear

Clear

Clear

Clear

Clear

Clear

Clear

Clear

Clear

Clear

Clear

Clear

Clear

Clear

Clear

Clear

Clear

Clear

Clear

Clear

Clear

Clouds

Clouds

Clouds

Clouds

Clouds

Clouds

Clouds

Clouds

Clouds

Clouds

Clouds

Clouds

Clouds

Clouds

Clouds
Temperature 43°F43°F43°F43°F46°F54°F59°F64°F67°F69°F71°F72°F73°F73°F71°F69°F62°F58°F56°F55°F53°F52°F52°F52°F51°F51°F51°F51°F54°F60°F65°F70°F72°F74°F76°F77°F76°F76°F70°F68°F67°F65°F63°F61°F61°F59°F59°F58°F
Feels Like 41°F42°F43°F42°F45°F52°F57°F62°F65°F68°F70°F71°F72°F71°F70°F68°F61°F57°F55°F53°F52°F51°F51°F51°F50°F50°F50°F50°F53°F60°F65°F69°F72°F73°F75°F77°F76°F76°F70°F68°F67°F65°F63°F61°F61°F59°F59°F58°F
Cloudiness 0%0%0%0%0%0%0%0%0%0%0%0%0%0%0%0%0%7%6%5%4%3%3%8%7%7%7%6%5%1%0%0%6%20%31%75%78%81%85%88%88%64%81%89%90%88%76%23%
Visibility 6 mi6 mi6 mi6 mi6 mi6 mi6 mi6 mi6 mi6 mi6 mi6 mi6 mi6 mi6 mi6 mi6 mi6 mi6 mi6 mi6 mi6 mi6 mi6 mi6 mi6 mi6 mi6 mi6 mi6 mi6 mi6 mi6 mi6 mi6 mi6 mi6 mi6 mi6 mi6 mi6 mi6 mi6 mi6 mi6 mi6 mi6 mi6 mi
Precipitation 0%0%0%0%0%0%0%0%0%0%0%0%0%0%0%0%0%0%0%0%0%0%0%0%0%0%0%0%0%0%0%0%0%0%0%0%0%0%0%0%0%0%0%0%0%0%0%0%
Humidity 100%93%86%81%76%63%57%50%44%40%38%36%36%37%39%50%66%69%73%75%75%78%83%89%94%97%97%97%92%76%63%52%46%45%44%43%46%47%67%72%76%80%86%90%91%93%94%94%
Dew Point 43°F41°F40°F38°F39°F41°F44°F44°F44°F44°F44°F44°F44°F45°F45°F49°F50°F48°F47°F46°F45°F45°F47°F48°F49°F50°F50°F50°F51°F53°F52°F51°F51°F51°F52°F53°F54°F55°F58°F59°F59°F58°F58°F58°F58°F57°F57°F56°F
Pressure 30.15"30.15"30.18"30.21"30.21"30.24"30.24"30.24"30.21"30.21"30.18"30.15"30.12"30.09"30.09"30.12"30.12"30.12"30.15"30.15"30.15"30.15"30.15"30.15"30.15"30.15"30.15"30.15"30.18"30.18"30.18"30.18"30.18"30.15"30.12"30.12"30.09"30.06"30.09"30.09"30.12"30.12"30.15"30.15"30.15"30.12"30.12"30.12"
Wind Speed 3.4 mph3.3 mph3 mph3.3 mph3.1 mph3.9 mph5.1 mph6.5 mph7.5 mph7.9 mph8.6 mph8.5 mph8.6 mph8.9 mph8.4 mph6.5 mph4.7 mph4.7 mph4.4 mph4.6 mph4.5 mph5 mph5.2 mph5.2 mph5.1 mph4.8 mph4.5 mph4.4 mph3.8 mph5.8 mph5.8 mph6.1 mph6.1 mph5.7 mph5.4 mph6 mph6.4 mph6.5 mph4 mph4.9 mph4.9 mph4.4 mph4.9 mph4.4 mph4.4 mph4.2 mph4 mph4.6 mph
Wind
Direction
104°
ESE
89°
E
86°
E
127°
SE
136°
SE
166°
SSE
176°
S
181°
S
186°
S
191°
S
193°
SSW
198°
SSW
204°
SSW
206°
SSW
209°
SSW
211°
SSW
198°
SSW
179°
S
176°
S
185°
S
179°
S
204°
SSW
227°
SW
234°
SW
234°
SW
228°
SW
234°
SW
247°
WSW
235°
SW
253°
WSW
264°
W
270°
W
278°
W
286°
WNW
281°
W
282°
WNW
269°
W
269°
W
253°
WSW
239°
WSW
251°
WSW
275°
W
321°
NW

N
32°
NNE
46°
NE
38°
NE
24°
NNE

Daily Forecast

Date High Low Precip. Humidity
Today
Apr 23

Clear
73 °F
43 °F
0%
40%
Wednesday
Apr 24

Clouds
77 °F
51 °F
0%
45%
Thursday
Apr 25

Rain
81 °F
56 °F
69%
50%
Friday
Apr 26

Clouds
79 °F
61 °F
0%
60%
Saturday
Apr 27

Clouds
78 °F
64 °F
0%
54%
Sunday
Apr 28

Rain
78 °F
64 °F
29%
57%
Monday
Apr 29

Rain
81 °F
61 °F
100%
52%
Tuesday
Apr 30

Rain
81 °F
64 °F
80%
65%
Wednesday
May 1

Clouds
88 °F
62 °F
0%
38%
Thursday
May 2

Clouds
87 °F
66 °F
0%
43%
Friday
May 3

Clouds
88 °F
66 °F
0%
43%
Saturday
May 4

Clouds
85 °F
63 °F
0%
21%
Sunday
May 5

Clear
80 °F
58 °F
0%
30%
Monday
May 6

Clear
80 °F
51 °F
0%
39%
Tuesday
May 7

Clear
82 °F
54 °F
0%
33%
Wednesday
May 8

Clouds
87 °F
59 °F
0%
33%

Temperature 8-14 Day Outlook



Precipitation 8-14 Day Outlook






About Us
Contact Us
Site Map
Search Site
Advertise With Us
   
www.LakeMartin.com
THE LAKE MARTIN WEBSITE

Copyright 2024, Lakes Online
Privacy    |    Legal